This demonstration page uses our WeatherBlox Daily Observations layout. Learn more.

Left ArrowRight Arrow

38.20091, -84.87328

Hourly Observations for July 18, 2018

Temp ( °F °C ) Dew Point ( °F °C ) Humidity (%) Winds ( mph kmh ) Pressure ( in mb ) Visibility ( mi km ) Precip ( " mm )
12:53 am 00:53 Clear 74 23.3 61 16.1 64 64 N 3 6 30.00 1016 10 16 0.00 0.00
1:53 am 01:53 Clear 73 22.8 60 15.6 64 64 N 5 7 30.01 1016 10 16 0.00 0.00
2:53 am 02:53 Clear 69 20.6 60 15.6 73 73 Calm 30.01 1016 10 16 0.00 0.00
3:53 am 03:53 Clear 66 18.9 60 15.6 81 81 Calm 30.01 1016 10 16 0.00 0.00
4:53 am 04:53 Clear 63 17.2 60 15.6 90 90 Calm 30.01 1016 10 16 0.00 0.00
5:53 am 05:53 Clear 63 17.2 59 15 87 87 Calm 30.01 1016 10 16 0.00 0.00
6:53 am 06:53 Sunny 64 17.8 59 15 84 84 NNW 3 6 30.03 1017 10 16 0.00 0.00
7:53 am 07:53 Sunny 68 20 60 15.6 76 76 NNW 3 6 30.03 1017 10 16 0.00 0.00
8:53 am 08:53 Sunny 72 22.2 59 15 64 64 VRB 5 7 30.04 1017 10 16 0.00 0.00
9:53 am 09:53 Sunny 76 24.4 61 16.1 60 60 Calm 30.04 1017 10 16 0.00 0.00
10:53 am 10:53 Sunny 80 26.7 60 15.6 51 51 E 5 7 30.04 1017 10 16 0.00 0.00
11:53 am 11:53 Mostly Cloudy 83 28.3 57 13.9 41 41 VRB 6 9 30.04 1017 10 16 0.00 0.00
12:53 pm 12:53 Partly Cloudy 83 28.3 58 14.4 43 43 VRB 5 7 30.03 1017 10 16 0.00 0.00
1:53 pm 13:53 Mostly Cloudy 83 28.3 59 15 44 44 Calm 30.01 1016 10 16 0.00 0.00
2:53 pm 14:53 Mostly Sunny 85 29.4 58 14.4 40 40 NW 5 7 30.01 1016 10 16 0.00 0.00
3:53 pm 15:53 Mostly Cloudy 85 29.4 59 15 42 42 undefined N/A 30.00 1016 10 16 0.00 0.00
4:53 pm 16:53 Mostly Cloudy 84 28.9 58 14.4 41 41 Calm 29.98 1015 10 16 0.00 0.00
5:53 pm 17:53 Partly Cloudy 86 30 58 14.4 39 39 N 6 9 29.97 1015 10 16 0.00 0.00
6:53 pm 18:53 Sunny 85 29.4 57 13.9 39 39 NNE 7 11 29.96 1015 10 16 0.00 0.00
7:53 pm 19:53 Mostly Sunny 85 29.4 58 14.4 40 40 N 6 9 29.96 1015 10 16 0.00 0.00
8:53 pm 20:53 Sunny 80 26.7 60 15.6 51 51 Calm 29.96 1015 10 16 0.00 0.00
9:53 pm 21:53 Clear 74 23.3 62 16.7 67 67 Calm 29.97 1015 10 16 0.00 0.00
10:53 pm 22:53 Clear 68 20 62 16.7 81 81 Calm 29.98 1015 10 16 0.00 0.00
11:53 pm 23:53 Clear 67 19.4 61 16.1 81 81 Calm 29.98 1015 10 16 0.00 0.00

Powered by AerisWeather